Tracking 28790 objects as of 19-Apr-2024
HD Live streaming from Space Station
objects crossing your sky now

FENGYUN 1C DEB

Track FENGYUN 1C DEB now!
10-day predictions


NORAD ID: 33728
Int'l Code: 1999-025DHR
Perigee: 509.7 km
Apogee: 760.1 km
Inclination: 99.0 °
Period: 97.3 minutes
Semi major axis: 7005 km
RCS: 0.0056 m2 (small)
Launch date: May 10, 1999
Source: People's Republic of China (PRC)
Launch site: Taiyaun Space Center, China (TSC)

Note: This is SATELLITE DEBRIS
Your satellite tracking list
Your tracking list is empty




NASA's NSSDC Master Catalog

Two Line Element Set (TLE):
1 33728U 99025DHR 24109.73620664  .00015534  00000-0  15475-2 0  9990
2 33728  98.9953  79.2074 0178691 335.2885 145.4637 14.80486435893376
Source of the keplerian elements: AFSPC